• Join FlightAware (Why Join?)
  • Login
  • US Flag 
05:13PM EST


 

Airport Tracker/Info


-or-


 

Live Flight TrackerFlight Track Log ✈ BJS621 ✈ 13-May-2013 ✈ KRIC - KTEB

Flight Track Log - Related Links

Times and Time Zones

All times are in EDT time to prevent confusion due to time zone crossing. See the BJS621 flight status page for this flight to view local times or setup timezone preferences in your user account.

Time Position Orientation Groundspeed Altitude Reporting Facility
EDT Latitude Longitude Course Direction KTS MPH feet Rate Location/Type
10:13AM 37.5508 -77.2369 38° Northeast 197 227 4,400  Level Washington Center
10:14AM 37.6017 -77.1828 40° Northeast 216 249 8,200 2,628 Climbing Washington Center
10:15AM 37.6672 -77.1161 39° Northeast 253 291 9,700 2,500 Climbing Washington Center
10:16AM 37.7392 -77.0414 39° Northeast 299 344 13,200 7,780 Climbing Washington Center
10:16AM 37.8278 -76.9483 40° Northeast 357 411 25,000 3,750 Climbing Washington Center
10:18AM 37.9875 -76.7959 38° Northeast  Level FlightAware Approximate
10:18AM 37.9164 -76.8553 40° Northeast 396 456 20,700  Level Washington Center
10:19AM 38.0211 -76.7936 25° Northeast 404 465 24,100 2,168 Climbing Washington Center
10:20AM 38.1406 -76.7375 20° North 426 490 25,000 458 Climbing Washington Center
10:21AM 38.2706 -76.6761 20° North 464 534 25,000  Level Washington Center
10:22AM 38.4067 -76.6092 21° North 470 541 25,000  Level Washington Center
10:23AM 38.5300 -76.5469 22° Northeast 477 549 25,000  Level Washington Center
10:24AM 38.6619 -76.4822 21° North 482 555 25,000  Level Washington Center
10:25AM 38.7897 -76.4200 21° North 482 555 25,000  Level Washington Center
10:26AM 38.9192 -76.3519 22° Northeast 492 566 25,000 -252 Level Washington Center
10:27AM 39.0489 -76.2892 21° North 492 566 24,500 -504 Descending Washington Center
10:28AM 39.1619 -76.2153 27° Northeast 492 566 24,000 -246 Descending Washington Center
10:29AM 39.2686 -76.0928 42° Northeast 498 573 24,000 -198 Level Washington Center
10:30AM 39.3961 -75.9783 35° Northeast 498 573 23,600 -1,744 Descending Washington Center
10:30AM 39.4967 -75.8819 36° Northeast 504 580 20,600 -3,176 Descending Washington Center
10:32AM 39.6114 -75.7719 36° Northeast 477 549 17,300 -2,413 Descending Washington Center
10:34AM 39.8167 -75.5833 35° Northeast 403 464 13,000 -1,380 Descending Philadelphia TRACON
10:35AM 39.9000 -75.5000 37° Northeast 419 482 13,000  Level Philadelphia TRACON
10:36AM 40.0000 -75.4167 33° Northeast 420 483 13,000  Level Philadelphia TRACON
10:37AM 40.1000 -75.3167 37° Northeast 421 484 13,000 -286 Level Philadelphia TRACON
10:38AM 40.1833 -75.2333 37° Northeast 330 380 12,400 -1,299 Descending Philadelphia TRACON
10:40AM 40.3333 -75.0833 37° Northeast 318 366 8,800 -1,660 Descending New York TRACON
10:41AM 40.4000 -75.0167 37° Northeast 296 341 7,200 -1,350 Descending New York TRACON
10:42AM 40.4500 -74.9333 52° Northeast 287 330 6,100 -1,050 Descending New York TRACON
10:43AM 40.5000 -74.8500 52° Northeast 285 328 5,100 -950 Descending New York TRACON
10:44AM 40.5500 -74.7833 45° Northeast 285 328 4,200 -550 Descending New York TRACON
10:45AM 40.6167 -74.7167 37° Northeast 276 318 4,000 -100 Descending New York TRACON
10:46AM 40.6833 -74.6667 30° Northeast 275 316 4,000  Level New York TRACON
10:47AM 40.7333 -74.5833 52° Northeast 271 312 4,000 -300 Level New York TRACON
10:48AM 40.7833 -74.5167 45° Northeast 266 306 3,400 -500 Descending New York TRACON
10:49AM 40.8333 -74.4500 45° Northeast 261 300 3,000 -200 Descending New York TRACON
10:50AM 40.8667 -74.3667 62° Northeast 259 298 3,000  Level New York TRACON
10:51AM 40.9167 -74.3000 45° Northeast 263 303 3,000 -150 Level New York TRACON
10:52AM 40.9667 -74.2167 52° Northeast 256 295 2,700 -400 Descending New York TRACON
10:53AM 40.9833 -74.1500 72° East 220 253 2,200 -350 Descending New York TRACON
10:54AM 40.9833 -74.0833 90° East 204 235 2,000 -100 Descending New York TRACON
10:55AM 40.9333 -74.0500 153° Southeast 200 230 2,000 -300 Level New York TRACON
10:56AM 40.8833 -74.0333 166° South 148 170 1,400 -600 Descending New York TRACON